#timestamp,LO_Frequency,Hit,StdDev 
1523970015.5,286046998.6,N
1523970035.3,286046994.9,P
1523970055.1,286046997.0,N
1523970075.9,286046997.3,N
1523970095.7,286046999.0,N
1523970115.6,286046998.8,N
1523970135.4,286046998.9,N
1523970155.2,286046998.5,N
1523970175.1,286046999.1,N
1523970176.0,286046999.1,N
1523970195.8,286046999.4,N
1523970215.6,286046998.9,N
1523970235.5,286046994.9,Y
1523970255.3,286046998.2,P
1523970275.2,286046999.0,P
1523970295.9,286046999.0,P
1523970315.7,286046999.2,N
1523970335.6,286046996.6,Y
1523970355.4,286046999.4,P
1523970375.2,286047001.2,P
1523970395.1,286047001.2,N
1523970396.0,286047001.2,N
1523970415.8,286046998.8,N
1523970435.7,286046998.1,N
1523970455.5,286047000.3,N
1523970475.3,286047000.4,N
1523970495.2,286047000.6,N
1523970515.0,286046998.8,N
1523970515.9,286046998.8,N
1523970535.8,286046997.2,N
1523970555.6,286046994.9,Y
1523970575.4,286046997.8,P
1523970595.3,286046997.2,P
1523970615.1,286046997.4,N
1523970635.8,286046998.3,N
1523970655.7,286047001.2,N
1523970675.5,286047001.2,N
1523970695.4,286047000.5,N
1523970715.2,286047001.0,N
1523970735.0,286046999.7,N
1523970735.9,286046999.7,N
1523970755.8,286047001.1,N
1523970775.6,286046998.8,N
1523970795.4,286046999.6,N
1523970815.3,286046996.5,N
1523970835.1,286046998.9,N
1523970855.9,286046998.5,N
1523970875.7,286047000.2,N
1523970895.5,286047000.4,N
1523970915.4,286047000.8,N
1523970935.2,286047001.7,N
1523970955.0,286047003.8,N
1523970956.0,286047003.8,N
1523970975.8,286047003.6,N
1523970995.6,286047002.1,N
1523971015.5,286047000.3,N
1523971035.3,286046999.8,N
1523971055.1,286046998.9,N
1523971075.9,286047001.2,N
1523971095.7,286046998.4,N
1523971115.6,286046998.7,N
1523971135.4,286047000.9,N
1523971155.2,286047000.6,N
1523971175.1,286047000.7,N
1523971176.0,286047000.7,N
1523971195.8,286046998.5,N
1523971215.6,286046997.1,N
1523971235.5,286046997.8,N
1523971255.3,286046995.6,N
1523971275.2,286046997.8,N
1523971295.9,286046996.6,N
1523971315.7,286046999.1,N
1523971335.6,286047002.8,N
1523971355.4,286047000.9,N
1523971375.2,286047000.7,N
1523971395.1,286046999.6,N
1523971396.0,286046999.6,N
1523971415.8,286046999.1,N
1523971435.7,286046996.5,N
1523971455.5,286046998.8,N
1523971475.3,286046996.7,N
1523971495.2,286046996.5,N
1523971515.0,286046996.5,N
1523971515.9,286046996.5,N
1523971535.8,286046997.3,N
1523971555.6,286046995.1,N
1523971575.4,286046996.3,N
1523971595.3,286046995.7,N
1523971615.1,286046995.4,N
1523971635.8,286046997.5,N
1523971655.7,286046995.3,N
1523971675.5,286046995.3,N
1523971695.4,286046993.6,Y
1523971715.2,286046997.0,P
1523971735.7,286046999.1,N
1523971755.6,286046999.5,N
1523971775.4,286046998.7,N
1523971795.2,286046999.4,N
1523971815.1,286046999.6,N
1523971816.0,286046999.6,N
1523971835.8,286046997.5,N
1523971855.7,286046995.3,Y
1523971875.5,286046999.5,P
1523971895.3,286046999.1,N
1523971915.2,286046996.6,P
1523971935.0,286046997.3,N
1523971935.9,286046997.3,N
1523971955.7,286046998.3,N
1523971975.6,286047000.9,N
1523971995.4,286047002.6,N
1523972015.3,286047001.3,N
1523972035.1,286047002.8,N
1523972036.0,286047002.8,N
1523972055.8,286047001.8,N
1523972075.7,286047001.3,N
1523972095.5,286047000.7,N
1523972115.4,286047002.6,N
1523972135.2,286047001.9,N
1523972155.0,286047003.7,N
1523972155.9,286047003.7,N
1523972175.8,286047002.3,N
1523972195.6,286047002.8,N
1523972215.4,286047002.4,N
1523972235.3,286047002.8,N
1523972255.1,286047002.7,N
1523972275.9,286047000.0,N
1523972295.7,286047000.7,N
1523972315.5,286046998.1,N
1523972335.4,286046999.1,N
1523972355.2,286046998.4,N
1523972375.0,286046999.0,N
1523972375.9,286046999.0,N
1523972395.8,286046996.6,N
1523972415.6,286046999.1,N
1523972435.5,286046996.9,N
1523972455.3,286046997.1,N
1523972475.1,286046997.4,N
1523972495.9,286046997.1,N
1523972515.7,286046999.1,N
1523972535.5,286046997.5,N
1523972555.4,286046996.6,N
1523972575.2,286046998.4,N
1523972595.1,286046999.6,N
1523972596.0,286046999.6,N
1523972615.8,286046998.9,N
1523972635.6,286046996.9,N
1523972655.5,286046995.0,N
1523972675.3,286046995.4,N
1523972695.2,286046997.4,N
1523972715.9,286046995.2,N
1523972735.7,286046997.2,N
1523972755.6,286046993.7,N
1523972775.4,286046996.0,N
1523972795.2,286046994.4,N
1523972815.1,286046993.2,Y
1523972816.0,286046993.2,P
1523972835.8,286046994.1,N
1523972855.7,286046994.1,P
1523972875.5,286046992.3,Y
1523972895.3,286047000.5,P
1523972915.2,286046999.8,N
1523972935.0,286047002.7,N
1523972935.9,286047002.7,N
1523972955.8,286047000.8,N
1523972975.6,286047000.1,N
1523972995.4,286047002.6,N
1523973015.3,286047002.2,N
1523973035.1,286047003.6,N
1523973055.9,286047001.5,N
1523973075.7,286046999.1,N
1523973095.5,286046997.3,N
1523973115.4,286046997.3,N
1523973135.2,286046999.4,N
1523973155.0,286046998.6,N
1523973155.9,286046998.6,N
1523973175.8,286046998.3,N
1523973195.6,286046996.6,N
1523973215.5,286046996.7,N
1523973235.3,286046999.0,N
1523973255.1,286046998.1,N
1523973275.9,286046999.9,N
1523973295.7,286047002.2,N
1523973315.5,286046999.7,N
1523973335.4,286047002.1,N
1523973355.2,286047000.4,N
1523973375.1,286046998.1,N
1523973376.0,286046998.1,N
1523973395.8,286046997.1,N
1523973415.6,286046994.5,N
1523973435.5,286046992.1,Y
1523973455.3,286046992.4,P
1523973475.1,286046990.4,N
1523973495.9,286046991.5,N
1523973515.7,286046992.9,N
1523973535.6,286046991.5,N
1523973555.4,286046988.7,Y
1523973575.2,286046998.3,P
1523973595.1,286046998.2,N
1523973596.0,286046998.2,N
